Flag Weather past 2 weeks in Freeport, Bahamas

Now
82 °F

Broken clouds.


Feels Like: 87 °F
Forecast: 76 / 80 °F
Wind: 16 mph from Southeast

Location: Palm Beach International Airport

Current Time: Nov 23, 2014 at 11:08:51 AM

Latest Report: Nov 23, 2014 at 10:53 AM


Visibility: 10 mi

Pressure: 30.02 "Hg

Humidity: 74%

Dew point: 73 °F

Location of FreeportLocation

Historic Weather in Freeport — Graph

°F

Freeport temperature yesterday

Maximum temperature yesterday: 80 °F (at 1:53 PM)
Minimum temperature yesterday: 74 °F (at 1:53 AM)
Average temperature yesterday: 77 °F

Past Weeks' High & Low Weather Summary

 TemperatureHumidityPressure
High88 °F (Nov 17, 1:53 PM)100% (Nov 9, 12:53 AM)30.24 "Hg (Nov 9, 12:53 AM)
Low54 °F (Nov 19, 12:53 AM)41% (Nov 14, 12:53 PM)29.82 "Hg (Nov 9, 4:53 PM)
Average72 °F77%30.03 "Hg
* Reported Nov 8 9:02 AM — Nov 23 9:53 AM, Freeport, Weather by CustomWeather, © 2014

Note: Actual official high and low records may vary slightly from our data, if they occured in-between our weather recording intervals... More about our weather records

Advertising

Freeport weather history for previous 24 hours

 ConditionsComfort  
Time TempWeatherWind HumidityBarometerVisibility
9:53 AM
Nov 23
82 °FBroken clouds.16 mph74%30.03 "Hg10 mi
8:53 AM81 °FScattered clouds.17 mph77%30.03 "Hg10 mi
7:53 AM79 °FScattered clouds.17 mph82%30.02 "Hg10 mi
6:53 AM78 °FBroken clouds.15 mph82%30.02 "Hg10 mi
5:53 AM78 °FPassing clouds.16 mph82%30.01 "Hg10 mi
4:53 AM78 °FPassing clouds.16 mph82%30.00 "Hg10 mi
3:53 AM78 °FPartly cloudy.17 mph82%30.01 "Hg10 mi
2:53 AM78 °FPassing clouds.16 mph82%30.02 "Hg10 mi
1:53 AM78 °FPassing clouds.17 mph82%30.03 "Hg10 mi
12:53 AM77 °FLight rain. Passing clouds.22 mph88%30.05 "Hg10 mi
11:53 PM
Nov 22
75 °FLight rain. Mostly cloudy.24 mph90%30.07 "Hg10 mi
10:53 PM76 °FLight rain. Mostly cloudy.23 mph85%30.09 "Hg10 mi
9:53 PM77 °FOvercast.23 mph79%30.09 "Hg10 mi
8:53 PM77 °FMostly cloudy.29 mph77%30.09 "Hg10 mi
7:53 PM77 °FMostly cloudy.26 mph77%30.09 "Hg10 mi
6:53 PM77 °FMostly cloudy.24 mph77%30.09 "Hg10 mi
5:53 PM77 °FMostly cloudy.22 mph77%30.09 "Hg10 mi
4:53 PM78 °FCloudy.26 mph74%30.09 "Hg10 mi
3:53 PM79 °FCloudy.22 mph69%30.10 "Hg10 mi
2:53 PM79 °FMostly cloudy.20 mph69%30.11 "Hg10 mi
1:53 PM80 °FBroken clouds.21 mph69%30.12 "Hg10 mi
12:53 PM79 °FCloudy.23 mph67%30.16 "Hg10 mi
11:53 AM78 °FMore clouds than sun.24 mph69%30.19 "Hg10 mi
Weather by CustomWeather, © 2014

See weather overviewHow to use our weather pages